Showing default

YUNYAO-1 43, 63344

Orbit data source: Space-Track

YUNYAO-1 43, 63344 is a payload satellite owned by Yunyao yuhang (CN) in SSO that was launched on Fri, 21 Mar 2025 UTC via a GUSHENXING 1 launch vehicle from the Jiuquan Satellite Launch Center, China (JSC). Payload-class satellites include a variety of spacecraft equipped with specific instruments for various scientific and technological missions. These include communications satellites like Starlink; space stations such as the ISS; scientific satellites like the Hubble; Earth observation satellites from companies like Planet Labs, Umbra, and HawkEye 360; GPS; miniature CubeSats for education and research; and military/defense satellites.

Loading next visibility...
Identifier
63344, 2025-059A
Orbit
SSO
Last TLE update
5 hours ago
Origin
Manufacturer
Changguang WJ
Mission
Operational spacecraft
Bus & Motor
YY-1, Unknown motor
Mass
~50 kg wet, ~50 kg dry
Launch date (UTC)
2025-03-21 (4 months ago)
Launch vehicle
GUSHENXING 1
Launch site
Jiuquan Satellite Launch Center, China (JSC)
Object type
Payload
Rocket body
Debris
Shape & HBR
Unknown
Radar Cross Section
Medium (>0.1 m² and <1 m²)

Expand to show TLE details & history

TLE from 5 hours ago
0 YUNYAO-1 43
1 63344U 25059A   25186.52763948  .00002590  00000-0  17278-3 0  9991
2 63344  97.6003   5.7150 0014101 260.2743  99.6892 15.07860944 16000
Epoch: 2025-07-05T12:39Z
TLE epoch observation values (Epoch: 2025-07-05T12:39:48.051Z)
Latitude
-0.00004°
Longitude
-107.9996°
Altitude
547.462 km
Speed
7.587 km/s
True Right ascension
00h 22m 51s
True Declination
0° 00' 00"
Sunlit
Object was in daylight at epoch
Visualization orbit readout
Latitude
-55.1401°
Longitude
-96.83039°
Altitude
557.223 km
Speed
7.585 km/s
Apparent Right ascension
20h 26m 09s
Apparent Declination
-65° 12' 12"
Sunlit
Object is in daylight
Visualization observer readout
Local Sidereal Time
05:07:01
Azimuth
211.505° SW
Elevation
-52.203°
Doppler factor
1
Orbital elements
Apogee altitude
549.483 km
Perigee altitude
529.973 km
Semi-major axis
6,917.865 km
Eccentricity
0.00141
Inclination
97.6003°
RAAN
5.715°
Arg. of periapsis
260.2743°
True anomaly
Unknown
Mean anomaly
99.6892°
Eccentric anomaly
Unknown
Mean motion
3.77212 °/min
Orbital period
95.44 mins
BSTAR
0.00017278
Loading maneuver chart data...
Loading SW <> Apogee altitude chart data...
Loading historical data...
Loading historical data...
Loading historical data...
Loading historical data...
Loading historical data...
Loading historical data...
Loading historical data...
Other satellites on launch #59 in the year 2025 (2025-03-21 UTC)

YUNYAO-1 43 Visibility forecast

Observer location: undefined°, undefined°

Span
Click to sort rows by Start time (UTC) header in descending order
Start Az.
Max El. time (UTC)
Max El. Az.
Max El.
End time (UTC)
End Az.
7 mins2025-07-06 00:22:41.541Z29.739° NE2025-07-06 00:25:41.541Z82.125° E31.564°2025-07-06 00:29:41.541Z168.124° S
4 mins2025-07-06 11:07:41.541Z97.368° ESE2025-07-06 11:08:41.541Z78.02° E18.96°2025-07-06 11:11:41.541Z23.969° NE
5 mins2025-07-06 12:41:41.541Z221.278° SW2025-07-06 12:43:41.541Z267.973° W24.698°2025-07-06 12:46:41.541Z321.464° NNW
|